This demonstration page uses our WeatherBlox Daily Observations layout. Learn more.

Hourly Observations for December 25, 2015

Temp ( °F °C ) Dew Point ( °F °C ) Humidity (%) Winds ( mph kmh ) Pressure ( in mb ) Visibility ( mi km ) Precip ( " mm )
12:15 am 00:15 Clear 21 -6.2 15 -9.5 78 78 SW 5 7 30.24 1024 10 16.0934 0 0
12:35 am 00:35 Clear 21 -6.3 14 -10.2 74 74 S 3 6 30.18 1022 10 16.0934 0 0
12:55 am 00:55 Clear 20 -6.8 13 -10.3 76 76 SSW 5 7 30.21 1023 10 16.0934 0 0
1:15 am 01:15 Clear 19 -7.5 13 -10.6 79 79 Calm 30.21 1023 10 16.0934 0 0
1:35 am 01:35 Clear 16 -8.8 12 -11.3 82 82 SSE 7 11 30.21 1023 10 16.0934 0 0
1:55 am 01:55 Clear 17 -8.2 13 -10.5 84 84 S 6 9 30.24 1024 10 16.0934 0 0
2:15 am 02:15 Clear 17 -8.6 12 -11.1 82 82 Calm 30.21 1023 10 16.0934 0 0
2:35 am 02:35 Clear 18 -7.9 14 -10.2 84 84 Calm 30.21 1023 10 16.0934 0 0
2:55 am 02:55 Clear 20 -6.8 14 -9.9 79 79 SSW 5 7 30.24 1024 10 16.0934 0 0
3:15 am 03:15 Clear 20 -6.5 14 -10 76 76 S 6 9 30.24 1024 10 16.0934 0 0
3:35 am 03:35 Clear 21 -6.1 13 -10.3 72 72 SSW 5 7 30.18 1022 10 16.0934 0 0
3:55 am 03:55 Partly Cloudy 22 -5.5 13 -10.3 69 69 SSW 7 11 30.18 1022 10 16.0934 0 0
4:15 am 04:15 Partly Cloudy 22 -5.3 14 -10 70 70 S 6 9 30.18 1022 10 16.0934 0 0
4:35 am 04:35 Clear 22 -5.3 15 -9.6 72 72 S 5 7 30.18 1022 10 16.0934 0 0
4:55 am 04:55 Mostly Cloudy 24 -4.6 16 -9.1 71 71 S 5 7 30.18 1022 10 16.0934 0 0
5:15 am 05:15 Cloudy 25 -3.8 16 -8.7 69 69 S 6 9 30.18 1022 10 16.0934 0 0
5:35 am 05:35 Cloudy 26 -3.6 17 -8.1 71 71 Calm 30.18 1022 10 16.0934 0 0
5:55 am 05:55 Cloudy 25 -4.1 19 -7.2 79 79 SE 3 6 30.18 1022 10 16.0934 0 0
6:15 am 06:15 Cloudy 25 -4 19 -7.3 78 78 SSW 7 11 30.18 1022 10 16.0934 0 0
6:35 am 06:35 Cloudy 27 -2.9 19 -7.3 72 72 S 7 11 30.15 1021 10 16.0934 0 0
6:55 am 06:55 Cloudy 28 -2.5 19 -7.2 70 70 S 8 13 30.15 1021 10 16.0934 0 0
7:15 am 07:15 Cloudy 27 -2.7 21 -6.2 77 77 SSE 6 9 30.15 1021 10 16.0934 0 0
7:35 am 07:35 Cloudy 28 -2.5 21 -6.1 77 77 SSE 8 13 30.15 1021 10 16.0934 0 0
7:55 am 07:55 Cloudy 28 -2.1 23 -5.2 80 80 SSE 7 11 30.15 1021 10 16.0934 0 0
8:15 am 08:15 Cloudy 29 -1.8 22 -5.6 76 76 SSE 10 17 30.15 1021 10 16.0934 0 0
8:35 am 08:35 Cloudy 28 -2 22 -5.5 77 77 SSE 9 15 30.15 1021 10 16.0934 0 0
8:55 am 08:55 Cloudy 29 -1.6 23 -5.2 77 77 SSE 12 19 30.15 1021 10 16.0934 0 0
9:15 am 09:15 Cloudy 30 -1.2 25 -4 82 82 SSE 9 15 30.18 1022 10 16.0934 0 0
9:35 am 09:35 Cloudy 31 -0.4 26 -3.2 82 82 SE 14 22 30.12 1020 10 16.0934 0 0
9:55 am 09:55 Cloudy 32 0 27 -3 80 80 SE 10 17 30.12 1020 10 16.0934 0 0
10:15 am 10:15 Cloudy 33 0.7 28 -2 82 82 ESE 9 15 30.12 1020 10 16.0934 0 0
10:35 am 10:35 Cloudy 35 1.5 28 -2 78 78 ESE 12 19 30.12 1020 10 16.0934 0 0
10:55 am 10:55 Cloudy 35 1.6 28 -2.1 77 77 SE 10 17 30.12 1020 10 16.0934 0 0
11:15 am 11:15 Cloudy 35 1.5 25 -3.7 69 69 SE 13 20 30.12 1020 10 16.0934 0 0
11:35 am 11:35 Cloudy 34 1.3 24 -4.3 67 67 SE 14 22 30.12 1020 10 16.0934 0 0
11:55 am 11:55 Cloudy 34 0.9 25 -3.7 72 72 SE 13 20 30.12 1020 10 16.0934 0 0
12:15 pm 12:15 Cloudy 34 0.9 27 -3 75 75 SE 10 17 30.12 1020 10 16.0934 0 0
12:35 pm 12:35 Cloudy 33 0.8 27 -3 76 76 ESE 15 24 30.09 1019 10 16.0934 0 0
12:55 pm 12:55 Cloudy 34 1 26 -3.6 72 72 ESE 16 26 30.06 1018 10 16.0934 0 0
1:15 pm 13:15 Cloudy 33 0.6 26 -3.5 74 74 ESE 21 33 30.03 1017 10 16.0934 0 0
1:35 pm 13:35 Cloudy 33 0.5 27 -3 78 78 ESE 17 28 30 1016 10 16.0934 0 0
1:55 pm 13:55 Cloudy 33 0.3 26 -3.2 78 78 ESE 18 30 30 1016 10 16.0934 0 0
2:15 pm 14:15 Cloudy 32 0.2 26 -3.4 77 77 ESE 21 33 30 1016 10 16.0934 0 0
2:35 pm 14:35 Cloudy 32 0.1 26 -3.3 78 78 ESE 20 31 30 1016 10 16.0934 0 0
2:55 pm 14:55 Cloudy 32 0.1 26 -3.1 79 79 SE 20 31 30 1016 10 16.0934 0 0
3:15 pm 15:15 Cloudy 32 0.1 27 -2.6 82 82 ESE 20 31 29.97 1015 10 16.0934 0 0
3:35 pm 15:35 Cloudy 32 0.1 27 -2.7 82 82 ESE 25 41 29.97 1015 10 16.0934 0 0
3:55 pm 15:55 Cloudy 32 0 27 -2.6 83 83 ESE 20 31 29.97 1015 10 16.0934 0 0
4:15 pm 16:15 Windy with Snow Likely 32 0 28 -2.2 85 85 ESE 20 31 29.94 1014 10 16.0934 0 0
4:35 pm 16:35 Cloudy 32 -0.1 28 -2.2 86 86 ESE 23 37 29.94 1014 10 16.0934 0 0
4:55 pm 16:55 Cloudy 32 -0.1 28 -2.5 84 84 ESE 22 35 29.94 1014 10 16.0934 0 0
5:15 pm 17:15 Cloudy 31 -0.3 27 -2.6 85 85 E 20 31 29.94 1014 10 16.0934 0 0
5:35 pm 17:35 Cloudy 31 -0.5 28 -2.5 87 87 ESE 22 35 29.94 1014 10 16.0934 0 0
5:55 pm 17:55 Cloudy 31 -0.5 28 -2.5 87 87 ESE 20 31 29.94 1014 10 16.0934 0 0
6:15 pm 18:15 Cloudy 31 -0.6 28 -2.4 88 88 ESE 18 30 29.94 1014 10 16.0934 0 0
6:35 pm 18:35 Cloudy 31 -0.6 28 -2.3 88 88 ESE 17 28 29.97 1015 10 16.0934 0 0
6:55 pm 18:55 Cloudy 31 -0.6 28 -2.3 88 88 ESE 13 20 29.97 1015 10 16.0934 0 0
7:15 pm 19:15 Cloudy 31 -0.5 28 -2.2 88 88 E 12 19 30 1016 10 16.0934 0 0
7:35 pm 19:35 Cloudy 31 -0.6 28 -2.2 89 89 E 15 24 30 1016 10 16.0934 0 0
7:55 pm 19:55 Cloudy 31 -0.7 28 -2 91 91 ESE 16 26 30 1016 10 16.0934 0 0
8:15 pm 20:15 Cloudy 31 -0.5 29 -1.8 91 91 E 15 24 30 1016 10 16.0934 0 0
8:35 pm 20:35 Cloudy 31 -0.6 28 -2 90 90 E 12 19 30 1016 10 16.0934 0 0
8:55 pm 20:55 Cloudy 31 -0.7 28 -2 91 91 E 13 20 30 1016 7 11.26538 0 0
9:15 pm 21:15 Cloudy 31 -0.8 28 -2 92 92 E 13 20 30 1016 7 11.26538 0 0
9:35 pm 21:35 Cloudy 30 -1 28 -2.1 92 92 E 15 24 30 1016 7 11.26538 0 0
9:55 pm 21:55 Cloudy with Mist and Fog 30 -1.2 28 -2.2 93 93 ENE 13 20 30 1016 5 8.0467 0 0
10:15 pm 22:15 Cloudy with Mist and Fog 30 -1.2 28 -2.1 94 94 ENE 15 24 30 1016 5 8.0467 0 0
10:35 pm 22:35 Cloudy with Mist and Fog 29 -1.5 28 -2.2 95 95 ENE 14 22 30 1016 5 8.0467 0 0
10:55 pm 22:55 Cloudy with Light Snow 29 -1.6 28 -2.5 94 94 ENE 15 24 30.03 1017 3 4.82802 0 0
11:15 pm 23:15 Cloudy with Mist and Fog 29 -1.7 28 -2.5 94 94 NE 17 28 30.03 1017 4 6.43736 0 0
11:35 pm 23:35 Cloudy with Mist and Fog 29 -1.8 28 -2.5 95 95 ENE 16 26 30.03 1017 5 8.0467 0 0
11:55 pm 23:55 Cloudy with Light Wintry Mix 28 -2 27 -2.6 96 96 ENE 16 26 30 1016 4 6.43736 0 0

Powered by AerisWeather